Retour au catalogue

CZ-6A DEB

ActifSSO
NORAD 54297·DEBRIS·🇨🇳 China

Lancé Nov 11, 2022 depuis Taiyuan Satellite Launch Center

Loading…

Prochains Passages (prochaines 24 heures)

TLE

FraisSource: Space-Track

Époque: Sep 14, 2026, 12:10 UTC

1 54297U 22151AQ  26257.50755713  .00000685  00000-0  29853-3 0  9992
2 54297  98.7152 276.4842 0026958  96.4360 263.9892 14.26984598199129

Suivez CZ-6A DEB en temps réel avec AllMySat

Download on the App Store